+ View the NASA Portal
+ Center for Near-Earth Object Studies
JPL Small-Body Database Browser
Search:
[
help
]
437316 (2013 OS3)
Classification:
Apollo
[
NEO
]
SPK-ID:
2437316
[
Ephemeris
|
Orbit Diagram
|
Orbital Elements
|
Mission Design
|
Physical Parameters
|
Discovery Circumstances
|
Close-Approach Data
]
[ show orbit diagram ]
Orbital Elements at Epoch 2459000.5 (2020-May-31.0) TDB
Reference:
JPL 79
(heliocentric ecliptic J2000)
Element
Value
Uncertainty (1-sigma)
Units
e
.4676377206660279
4.223e-08
a
1.829533422631425
1.323e-08
au
q
.9739745829897488
7.7778e-08
au
i
29.90753032183387
1.7812e-05
deg
node
297.6386438211901
5.2543e-06
deg
peri
224.611968207887
1.3555e-05
deg
M
36.7865296650472
4.417e-06
deg
t
p
2458908.137587653598
(2020-Feb-28.63758765)
1.1379e-05
TDB
period
903.8761945598219
2.47
9.8046e-06
2.684e-08
d
yr
n
.3982846347395134
4.3203e-09
deg/d
Q
2.685092262273102
1.9417e-08
au
Orbit Determination Parameters
# obs. used (total)
466
data-arc span
2394 days (6.55 yr)
first obs. used
2013-07-16
last obs. used
2020-02-04
planetary ephem.
DE431
SB-pert. ephem.
SB431-N16
condition code
0
norm. resid. RMS
.3998
source
ORB
producer
Otto Matic
solution date
2020-Dec-18 07:26:38
Additional Information
Earth MOID
= .0792259 au
Jupiter MOID
= 2.60673 au
T_jup
= 3.753
[ show covariance matrix ]
[
Ephemeris
|
Orbit Diagram
|
Orbital Elements
|
Mission Design
|
Physical Parameters
|
Discovery Circumstances
|
Close-Approach Data
]
Physical Parameter Table
Parameter
Symbol
Value
Units
Sigma
Reference
Notes
absolute magnitude
H
18.4
n/a
MPO456078
rotation period
rot_per
5.593
h
n/a
LCDB (Rev. 2020-October); Warner et al., 2009
Published Reference List:
[Benishek, V. (2020) Minor Planet Bull. 47, 231-241.]
[Warner, B.D.; Stephens, R.D. (2020) Minor Planet Bull. 47, 200-213.]
437316 (2013 OS3)
Discovered 2013-Jul-16 by Pan-STARRS 1 at Haleakala
Reference:
Last Updated:
2015-06-04
[ show close-approach data ]
[
Ephemeris
|
Orbit Diagram
|
Orbital Elements
|
Mission Design
|
Physical Parameters
|
Discovery Circumstances
|
Close-Approach Data
]
2021-Jan-24 13:17 UT
(server date/time)
Site Manager:
Ryan S. Park
Webmaster
:
Alan B. Chamberlin